ONEWEB-0069 (45430 NORAD) Tracking and Keplerian Element Data

This shows tracking and keplerian element data for the satellite.

Feedback or suggestion? Click here.




ElementValue
Catalog45430
NameONEWEB-0069
Epoch Orbit3220
Epoch Day297.91667824
Epoch Year2020
RAAN71.6388
Inclination87.7901
Eccentricity0.0026244
Argument of Perigee244.9364
Mean Anonmoly125.7808
Mean Motion13.97205726
Decay Rate-0.00019433
L11 45430U 20020G 20297.91667824 -.00019433 00000-0 -13908-1 0 9997
L22 45430 87.7901 71.6388 0026244 244.9364 125.7808 13.97205726 32203

Live tracking and technical data element details for ONEWEB-0069 (NORAD 45430). ONEWEB-0069 can be tracked NOW for your location showing map with azimuth and elevation plus other details from your city location.

Track the satellite on the map from your city or location and see movement details for azimuth, elevation, latitude, longitude, range, height, and movement on the map or in text.







IsCatalogInMostPopularTable: catalog: 45430, numindb: 55
Update: records affected: 1



GetName: 45430 ONEWEB-0069

Hit Count: updated at: Sun, 25 Oct 2020 00:06:05 GMT